Weather History for Eastover, SC

Change the Weather History Date:

Saturday, January 19, 2013

  Actual Average Record
Temperature  
Mean Temperature 44 °F -  
Max Temperature 59 °F 53 °F 75 °F (2001)
Min Temperature 29 °F 33 °F 17 °F (2005)
Degree Days  
Heating Degree Days 21    
Moisture  
Dew Point 30 °F    
Average Humidity 63    
Maximum Humidity 88    
Minimum Humidity 34    
Precipitation  
Precipitation 0.00 in - - ()
Sea Level Pressure  
Sea Level Pressure 30.38 in    
Wind  
Wind Speed 2 mph (ENE)    
Max Wind Speed 8 mph    
Max Gust Speed -    
Visibility 10 miles    
Events      
Averages and records for this station are not official NWS values.
T = Trace of Precipitation, MM = Missing Value Source: NWS Daily Summary

Daily Weather History Graph

Daily Weather History Graph

Search for Another Location

Airport:

Trip Planner

Search our weather history database for the weather conditions in past years. The results will help you decide how hot, cold, wet, or windy it might be!

Date:

Astronomy

Jan. 19, 2013 Rise Set
Actual Time 7:26 AM EST 5:41 PM EST
Civil Twilight 7:00 AM EST 6:08 PM EST
Nautical Twilight 6:29 AM EST 6:38 PM EST
Astronomical Twilight 5:59 AM EST 7:08 PM EST
Moon 12:03 PM EST (1/19) 1:03 AM EST (1/19)
Length of Visible Light 11h 08m
Length of Day
10h 14m
First Quarter, 57% of the Moon is Illuminated
Jan 19
First Quarter
Jan 26
Full
Feb 3
Last Quarter
Feb 10
New
Feb 17
First Quarter

Hourly Weather History & Observations

Time (EST) Temp. Windchill Dew Point Humidity Pressure Visibility Wind Dir Wind Speed Gust Speed Precip Events Conditions
12:55 AM 35.1 °F 32.2 °F 23.0 °F 61% 30.52 in 10.0 mi ENE 3.5 mph - N/A   Clear
1:55 AM 33.1 °F - 22.1 °F 64% 30.51 in 10.0 mi Calm Calm - N/A   Clear
2:55 AM 30.4 °F 26.9 °F 23.9 °F 77% 30.51 in 10.0 mi NE 3.5 mph - N/A   Clear
3:55 AM 34.7 °F 28.8 °F 22.8 °F 62% 30.48 in 10.0 mi NE 6.9 mph - N/A   Clear
4:55 AM 35.2 °F 28.8 °F 23.0 °F 61% 30.46 in 10.0 mi NE 8.1 mph - N/A   Clear
5:55 AM 31.8 °F - 23.0 °F 70% 30.46 in 10.0 mi Calm Calm - N/A   Clear
6:55 AM 29.3 °F - 23.7 °F 80% 30.46 in 10.0 mi Calm Calm - N/A   Clear
7:55 AM 29.8 °F - 25.3 °F 83% 30.47 in 10.0 mi Calm Calm - N/A   Clear
8:55 AM 36.1 °F - 27.9 °F 72% 30.49 in 10.0 mi Calm Calm - N/A   Clear
9:55 AM 42.3 °F - 27.5 °F 56% 30.49 in 10.0 mi Calm Calm - N/A   Clear
10:55 AM 47.7 °F - 28.6 °F 48% 30.47 in 10.0 mi Calm Calm - N/A   Clear
11:55 AM 51.6 °F - 24.8 °F 35% 30.43 in 10.0 mi Calm Calm - N/A   Clear
12:55 PM 55.0 °F - 27.0 °F 34% 30.37 in 10.0 mi SE 4.6 mph - N/A   Clear
1:55 PM 57.4 °F - 30.0 °F 35% 30.33 in 10.0 mi Calm Calm - N/A   Partly Cloudy
2:55 PM 59.0 °F - 32.9 °F 37% 30.30 in 10.0 mi Variable 4.6 mph - N/A   Mostly Cloudy
3:55 PM 59.7 °F - 34.9 °F 39% 30.29 in 10.0 mi Calm Calm - N/A   Clear
4:55 PM 57.7 °F - 36.0 °F 44% 30.28 in 10.0 mi SSW 4.6 mph - N/A   Clear
5:55 PM 52.9 °F - 38.5 °F 58% 30.27 in 10.0 mi Calm Calm - N/A   Clear
6:55 PM 46.8 °F - 39.0 °F 74% 30.28 in 10.0 mi Calm Calm - N/A   Clear
7:55 PM 43.5 °F - 39.0 °F 84% 30.28 in 10.0 mi Calm Calm - N/A   Clear
8:55 PM 41.7 °F - 37.6 °F 85% 30.28 in 10.0 mi Calm Calm - N/A   Clear
9:55 PM 41.2 °F 39.2 °F 37.4 °F 86% 30.26 in 10.0 mi SSE 3.5 mph - N/A   Clear
10:55 PM 39.9 °F 37.8 °F 36.5 °F 88% 30.25 in 10.0 mi NNW 3.5 mph - N/A   Clear
11:55 PM 41.0 °F - 37.0 °F 86% 30.22 in 10.0 mi Calm Calm - N/A   Clear